Orbital Elements at Epoch 2459200.5 (2020-Dec-17.0) TDB
Reference: JPL 22 (heliocentric ecliptic J2000)
Element | Value | Uncertainty (1-sigma) | Units |
e | .1707632586516823 | 4.064e-08 | |
a | 2.594539489963712 | 1.9261e-08 | au |
q | 2.151487471957034 | 1.1414e-07 | au |
i | 12.28871689218706 | 6.5827e-06 | deg |
node | 304.6269150304088 | 1.7895e-05 | deg |
peri | 88.83420809600247 | 2.9251e-05 | deg |
M | 321.5042422166684 | 2.4943e-05 | deg |
tp | 2459363.729716752717 (2021-May-29.22971675) | 0.00010681 | TDB |
period | 1526.472043016181 4.18 | 1.6998e-05 4.654e-08 | d yr |
n | .235837925527067 | 2.6262e-09 | deg/d |
Q | 3.037591507970389 | 2.2551e-08 | au |
|
| | Orbit Determination Parameters
Additional Information
|